Weather History for Montpelier, VT

Change the Weather History Date:

Saturday, February 16, 2013

  Actual Average Record
Temperature  
Mean Temperature 23 °F 20 °F  
Max Temperature 31 °F 31 °F 54 °F (1954)
Min Temperature 15 °F 10 °F -20 °F (2004)
Degree Days  
Heating Degree Days 42 45  
Month to date heating degree days 758 743  
Since 1 July heating degree days 5103 5388  
Moisture  
Dew Point 15 °F    
Average Humidity 70    
Maximum Humidity 92    
Minimum Humidity 47    
Precipitation  
Precipitation T in 0.08 in 1.10 in (1954)
Month to date precipitation 0.61 1.21  
Year to date precipitation 1.56 3.66  
Sea Level Pressure  
Sea Level Pressure 29.98 in    
Wind  
Wind Speed 5 mph (NNW)    
Max Wind Speed 13 mph    
Max Gust Speed 17 mph    
Visibility 9 miles    
Events Snow    
T = Trace of Precipitation, MM = Missing Value Source: NWS Daily Summary

Daily Weather History Graph

Daily Weather History Graph

Search for Another Location

Airport:

Trip Planner

Search our weather history database for the weather conditions in past years. The results will help you decide how hot, cold, wet, or windy it might be!

Date:

Astronomy

Feb. 16, 2013 Rise Set
Actual Time 6:47 AM EST 5:21 PM EST
Civil Twilight 6:18 AM EST 5:51 PM EST
Nautical Twilight 5:44 AM EST 6:24 PM EST
Astronomical Twilight 5:10 AM EST 6:58 PM EST
Moon 9:43 AM EST No Moon Set
Length of Visible Light 11h 32m
Length of Day
10h 33m
Waxing Crescent, 39% of the Moon is Illuminated
Feb 16
Waxing Crescent
Feb 17
First Quarter
Feb 25
Full
Mar 4
Last Quarter
Mar 11
New

Hourly Weather History & Observations

Time (EST) Temp. Windchill Dew Point Humidity Pressure Visibility Wind Dir Wind Speed Gust Speed Precip Events Conditions
12:51 AM 30.9 °F 25.2 °F 19.0 °F 61% 30.00 in 10.0 mi WNW 5.8 mph - N/A   Overcast
1:15 AM 30.2 °F 22.6 °F 21.2 °F 69% 29.96 in 5.0 mi WNW 8.1 mph - 0.00 in Snow Light Snow
1:26 AM 28.4 °F 21.2 °F 23.0 °F 80% 29.96 in 1.8 mi WSW 6.9 mph - 0.00 in Snow Light Snow
1:51 AM 27.0 °F 21.6 °F 24.1 °F 89% 30.01 in 1.8 mi NW 4.6 mph - 0.00 in Snow Light Snow
1:57 AM 26.6 °F 21.2 °F 24.8 °F 93% 29.97 in 2.0 mi NW 4.6 mph - 0.00 in Snow Light Snow
2:15 AM 26.6 °F - 24.8 °F 93% 29.96 in 2.5 mi Calm Calm - 0.00 in Snow Light Snow
2:29 AM 26.6 °F 22.6 °F 24.8 °F 93% 29.96 in 3.0 mi North 3.5 mph - 0.00 in Snow Light Snow
2:51 AM 26.1 °F 20.5 °F 24.1 °F 92% 30.00 in 7.0 mi NW 4.6 mph - 0.00 in   Overcast
2:58 AM 26.6 °F 21.2 °F 23.0 °F 86% 29.95 in 9.0 mi NW 4.6 mph - N/A   Overcast
3:51 AM 25.0 °F 20.7 °F 21.9 °F 88% 29.99 in 10.0 mi NNW 3.5 mph - N/A   Overcast
4:12 AM 24.8 °F - 21.2 °F 86% 29.94 in 10.0 mi Calm Calm - N/A   Overcast
4:51 AM 25.0 °F 20.7 °F 21.0 °F 85% 29.99 in 10.0 mi West 3.5 mph - N/A   Overcast
5:11 AM 24.8 °F - 21.2 °F 86% 29.95 in 10.0 mi Calm Calm - N/A   Overcast
5:51 AM 25.0 °F 20.7 °F 18.0 °F 75% 29.99 in 10.0 mi WNW 3.5 mph - N/A   Overcast
6:51 AM 24.1 °F 18.2 °F 17.1 °F 75% 30.00 in 10.0 mi NW 4.6 mph - N/A   Overcast
7:51 AM 24.1 °F 18.2 °F 15.1 °F 69% 30.01 in 10.0 mi NNW 4.6 mph - N/A   Overcast
8:51 AM 24.1 °F 18.2 °F 15.1 °F 69% 30.02 in 10.0 mi NW 4.6 mph - N/A   Overcast
9:51 AM 23.0 °F 17.0 °F 15.1 °F 72% 30.01 in 9.0 mi NW 4.6 mph - 0.00 in Snow Light Snow
10:35 AM 24.8 °F 16.1 °F 14.0 °F 64% 29.96 in 10.0 mi North 8.1 mph - 0.00 in   Mostly Cloudy
10:51 AM 24.1 °F 15.2 °F 15.1 °F 69% 30.01 in 10.0 mi NW 8.1 mph - 0.00 in   Mostly Cloudy
11:07 AM 24.8 °F 16.9 °F 14.0 °F 64% 29.96 in 10.0 mi WNW 6.9 mph - N/A   Scattered Clouds
11:51 AM 26.1 °F 18.4 °F 12.9 °F 58% 29.99 in 10.0 mi NNW 6.9 mph - N/A   Overcast
12:51 PM 26.1 °F 17.6 °F 14.0 °F 60% 29.97 in 10.0 mi NW 8.1 mph - N/A   Overcast
1:51 PM 25.0 °F 15.5 °F 12.0 °F 58% 29.98 in 10.0 mi NNW 9.2 mph - N/A   Overcast
2:51 PM 25.0 °F 16.3 °F 10.0 °F 53% 29.97 in 10.0 mi NW 8.1 mph - N/A   Overcast
3:51 PM 24.1 °F 15.2 °F 9.0 °F 53% 29.98 in 10.0 mi North 8.1 mph - N/A   Mostly Cloudy
4:51 PM 21.9 °F 13.4 °F 7.0 °F 53% 29.98 in 10.0 mi North 6.9 mph - N/A   Clear
5:51 PM 21.0 °F 13.4 °F 5.0 °F 50% 29.99 in 10.0 mi NNE 5.8 mph - N/A   Clear
6:51 PM 19.0 °F 12.3 °F 3.9 °F 52% 30.01 in 10.0 mi NNE 4.6 mph - N/A   Clear
7:51 PM 19.0 °F 11.1 °F 3.9 °F 52% 29.99 in 10.0 mi NNE 5.8 mph - N/A   Clear
8:51 PM 18.0 °F 12.7 °F 3.0 °F 52% 29.99 in 10.0 mi North 3.5 mph - N/A   Partly Cloudy
9:51 PM 17.1 °F - 3.0 °F 54% 29.97 in 10.0 mi Calm Calm - N/A   Mostly Cloudy
10:51 PM 17.1 °F 11.7 °F 3.0 °F 54% 29.95 in 10.0 mi NE 3.5 mph - N/A   Scattered Clouds
11:51 PM 16.0 °F 10.4 °F 3.0 °F 57% 29.92 in 10.0 mi NNE 3.5 mph - N/A   Overcast